| time (UTC) | temp F | wind direction | speed MPH | gust MPH | rain 1hr in | rain 24hr in | rain mn in | humidity % | barometer mb |
| 20260901124829 | 55 | 141 | 1.0 | 1.0 | 0.00 | 0.00 | 0.00 | 99 | 1025.8 |
| 20260901124325 | 55 | 141 | 1.0 | 1.0 | 0.00 | 0.00 | 0.00 | 99 | 1025.8 |
| 20260901123824 | 57 | 58 | 2.0 | 2.0 | 0.00 | 0.00 | 0.00 | 99 | 1025.7 |
| 20260901123319 | 57 | 58 | 2.0 | 2.0 | 0.00 | 0.00 | 0.00 | 99 | 1025.7 |
| 20260901122818 | 58 | 74 | 7.0 | 8.0 | 0.00 | 0.00 | 0.00 | 99 | 1025.7 |
| 20260901122317 | 58 | 74 | 7.0 | 8.0 | 0.00 | 0.00 | 0.00 | 99 | 1025.7 |
| 20260901121817 | 55 | 108 | 6.0 | 7.0 | 0.00 | 0.00 | 0.00 | 99 | 1025.8 |
| 20260901121312 | 55 | 108 | 6.0 | 7.0 | 0.00 | 0.00 | 0.00 | 99 | 1025.8 |
| 20260901120807 | 55 | 138 | 3.0 | 3.0 | 0.00 | 0.00 | 0.00 | 99 | 1025.8 |
| 20260901120307 | 55 | 138 | 3.0 | 3.0 | 0.00 | 0.00 | 0.00 | 99 | 1025.8 |
| 20260901115802 | 56 | 116 | 3.0 | 3.0 | 0.00 | 0.00 | 0.00 | 99 | 1025.8 |
| 20260901115258 | 56 | 116 | 3.0 | 3.0 | 0.00 | 0.00 | 0.00 | 99 | 1025.8 |
| 20260901114755 | 55 | 80 | 4.0 | 4.0 | 0.00 | 0.00 | 0.00 | 99 | 1025.7 |
| 20260901114250 | 55 | 80 | 4.0 | 4.0 | 0.00 | 0.00 | 0.00 | 99 | 1025.7 |
| 20260901113749 | 55 | 109 | 5.0 | 6.0 | 0.00 | 0.00 | 0.00 | 99 | 1025.6 |
| 20260901113244 | 55 | 109 | 5.0 | 6.0 | 0.00 | 0.00 | 0.00 | 99 | 1025.6 |
| 20260901112744 | 55 | 107 | 4.0 | 6.0 | 0.00 | 0.00 | 0.00 | 99 | 1025.6 |
| 20260901112243 | 55 | 107 | 4.0 | 6.0 | 0.00 | 0.00 | 0.00 | 99 | 1025.6 |
| 20260901111738 | 56 | 108 | 6.0 | 7.0 | 0.00 | 0.00 | 0.00 | 99 | 1025.3 |
| 20260901111237 | 56 | 108 | 6.0 | 7.0 | 0.00 | 0.00 | 0.00 | 99 | 1025.3 |
| 20260901110731 | 55 | 151 | 6.0 | 6.0 | 0.00 | 0.00 | 0.00 | 99 | 1025.7 |
| 20260901110226 | 55 | 151 | 6.0 | 6.0 | 0.00 | 0.00 | 0.00 | 99 | 1025.7 |
| 20260901105723 | 56 | 85 | 6.0 | 8.0 | 0.00 | 0.00 | 0.00 | 99 | 1025.8 |
| 20260901105223 | 56 | 85 | 6.0 | 8.0 | 0.00 | 0.00 | 0.00 | 99 | 1025.8 |
| 20260901104719 | 56 | 175 | 7.0 | 8.0 | 0.00 | 0.00 | 0.00 | 99 | 1025.7 |
| 20260901104214 | 56 | 175 | 7.0 | 8.0 | 0.00 | 0.00 | 0.00 | 99 | 1025.7 |
| 20260901103713 | 58 | 119 | 4.0 | 4.0 | 0.00 | 0.00 | 0.00 | 99 | 1025.7 |
| 20260901103209 | 58 | 119 | 4.0 | 4.0 | 0.00 | 0.00 | 0.00 | 99 | 1025.7 |
| 20260901102703 | 57 | 98 | 1.0 | 1.0 | 0.00 | 0.00 | 0.00 | 99 | 1025.6 |
| 20260901102202 | 57 | 98 | 1.0 | 1.0 | 0.00 | 0.00 | 0.00 | 99 | 1025.6 |
| 20260901101659 | 57 | 72 | 2.0 | 3.0 | 0.00 | 0.00 | 0.00 | 99 | 1026.0 |
| 20260901101158 | 57 | 72 | 2.0 | 3.0 | 0.00 | 0.00 | 0.00 | 99 | 1026.0 |
| 20260901100653 | 57 | 68 | 1.0 | 2.0 | 0.00 | 0.00 | 0.00 | 99 | 1025.7 |
| 20260901100148 | 57 | 68 | 1.0 | 2.0 | 0.00 | 0.00 | 0.00 | 99 | 1025.7 |
| 20260901095646 | 56 | 139 | 2.0 | 2.0 | 0.00 | 0.00 | 0.00 | 99 | 1025.8 |
| 20260901095143 | 56 | 139 | 2.0 | 2.0 | 0.00 | 0.00 | 0.00 | 99 | 1025.8 |
| 20260901094638 | 57 | 106 | 1.0 | 1.0 | 0.00 | 0.00 | 0.00 | 99 | 1026.1 |
| 20260901094133 | 57 | 106 | 1.0 | 1.0 | 0.00 | 0.00 | 0.00 | 99 | 1026.1 |
| 20260901093627 | 57 | 102 | 1.0 | 1.0 | 0.00 | 0.00 | 0.00 | 99 | 1026.1 |
| 20260901093126 | 57 | 102 | 1.0 | 1.0 | 0.00 | 0.00 | 0.00 | 99 | 1026.1 |
| 20260901092622 | 58 | 4 | 4.0 | 4.0 | 0.00 | 0.00 | 0.00 | 99 | 1026.2 |
| 20260901092119 | 58 | 4 | 4.0 | 4.0 | 0.00 | 0.00 | 0.00 | 99 | 1026.2 |
| 20260901091614 | 58 | 294 | 2.0 | 2.0 | 0.00 | 0.00 | 0.00 | 99 | 1026.5 |
| 20260901091109 | 58 | 294 | 2.0 | 2.0 | 0.00 | 0.00 | 0.00 | 99 | 1026.5 |
| 20260901090609 | 58 | 143 | 0.0 | 0.0 | 0.00 | 0.00 | 0.00 | 99 | 1026.2 |
| 20260901090104 | 58 | 143 | 0.0 | 0.0 | 0.00 | 0.00 | 0.00 | 99 | 1026.2 |
| 20260901085559 | 58 | 254 | 4.0 | 4.0 | 0.00 | 0.00 | 0.00 | 99 | 1026.5 |
| 20260901085055 | 58 | 254 | 4.0 | 4.0 | 0.00 | 0.00 | 0.00 | 99 | 1026.5 |
| 20260901084551 | 57 | 295 | 2.0 | 2.0 | 0.00 | 0.00 | 0.00 | 99 | 1026.5 |
| 20260901084048 | 57 | 295 | 2.0 | 2.0 | 0.00 | 0.00 | 0.00 | 99 | 1026.5 |
| 20260901083542 | 58 | 130 | 3.0 | 4.0 | 0.00 | 0.00 | 0.00 | 99 | 1026.6 |
| 20260901083041 | 58 | 130 | 3.0 | 4.0 | 0.00 | 0.00 | 0.00 | 99 | 1026.6 |
| 20260901082535 | 59 | 339 | 6.0 | 7.0 | 0.00 | 0.00 | 0.00 | 99 | 1027.0 |
| 20260901082031 | 59 | 339 | 6.0 | 7.0 | 0.00 | 0.00 | 0.00 | 99 | 1027.0 |
| 20260901081526 | 59 | 349 | 5.0 | 6.0 | 0.00 | 0.00 | 0.00 | 99 | 1027.0 |
| 20260901081021 | 60 | 101 | 1.0 | 1.0 | 0.00 | 0.00 | 0.00 | 99 | 1027.1 |
| 20260901080520 | 60 | 101 | 1.0 | 1.0 | 0.00 | 0.00 | 0.00 | 99 | 1027.1 |
| 20260901080019 | 58 | 130 | 6.0 | 7.0 | 0.00 | 0.00 | 0.00 | 99 | 1027.3 |
| 20260901075515 | 58 | 130 | 6.0 | 7.0 | 0.00 | 0.00 | 0.00 | 99 | 1027.3 |
| 20260901075009 | 59 | 147 | 4.0 | 6.0 | 0.00 | 0.00 | 0.00 | 99 | 1027.3 |
| 20260901074508 | 59 | 147 | 4.0 | 6.0 | 0.00 | 0.00 | 0.00 | 99 | 1027.3 |
| 20260901074004 | 57 | 86 | 4.0 | 4.0 | 0.00 | 0.00 | 0.00 | 99 | 1027.1 |
| 20260901073501 | 57 | 86 | 4.0 | 4.0 | 0.00 | 0.00 | 0.00 | 99 | 1027.1 |
| 20260901072955 | 57 | 66 | 5.0 | 6.0 | 0.00 | 0.00 | 0.00 | 99 | 1027.3 |
| 20260901072450 | 57 | 66 | 5.0 | 6.0 | 0.00 | 0.00 | 0.00 | 99 | 1027.3 |
| 20260901071944 | 55 | 89 | 7.0 | 8.0 | 0.00 | 0.00 | 0.00 | 99 | 1027.2 |
| 20260901071443 | 55 | 89 | 7.0 | 8.0 | 0.00 | 0.00 | 0.00 | 99 | 1027.2 |
| 20260901070938 | 58 | 193 | 2.0 | 2.0 | 0.00 | 0.00 | 0.00 | 99 | 1027.0 |
| 20260901070433 | 58 | 193 | 2.0 | 2.0 | 0.00 | 0.00 | 0.00 | 99 | 1027.0 |
| 20260901065932 | 58 | 97 | 1.0 | 2.0 | 0.00 | 0.00 | 0.00 | 99 | 1027.1 |
| 20260901065428 | 58 | 97 | 1.0 | 2.0 | 0.00 | 0.00 | 0.00 | 99 | 1027.1 |
| 20260901064922 | 57 | 94 | 2.0 | 3.0 | 0.00 | 0.00 | 0.00 | 99 | 1027.1 |
| 20260901064419 | 57 | 94 | 2.0 | 3.0 | 0.00 | 0.00 | 0.00 | 99 | 1027.1 |
| 20260901063915 | 56 | 127 | 6.0 | 7.0 | 0.00 | 0.00 | 0.00 | 99 | 1027.3 |
| 20260901063412 | 56 | 127 | 6.0 | 7.0 | 0.00 | 0.00 | 0.00 | 99 | 1027.3 |
| 20260901062902 | 57 | 101 | 4.0 | 4.0 | 0.00 | 0.00 | 0.00 | 99 | 1027.2 |
| 20260901061853 | 56 | 139 | 5.0 | 7.0 | 0.00 | 0.00 | 0.00 | 99 | 1027.2 |
| 20260901061349 | 56 | 139 | 5.0 | 7.0 | 0.00 | 0.00 | 0.00 | 99 | 1027.2 |
| 20260901060843 | 56 | 153 | 6.0 | 7.0 | 0.00 | 0.00 | 0.00 | 99 | 1027.1 |
| 20260901060339 | 56 | 153 | 6.0 | 7.0 | 0.00 | 0.00 | 0.00 | 99 | 1027.1 |
| 20260901055833 | 56 | 130 | 8.0 | 9.0 | 0.00 | 0.06 | 0.06 | 99 | 1027.1 |
| 20260901055330 | 56 | 130 | 8.0 | 9.0 | 0.00 | 0.06 | 0.06 | 99 | 1027.1 |
| 20260901054826 | 56 | 140 | 7.0 | 8.0 | 0.00 | 0.06 | 0.06 | 99 | 1027.1 |
| 20260901054323 | 56 | 140 | 7.0 | 8.0 | 0.00 | 0.06 | 0.06 | 99 | 1027.1 |
| 20260901053819 | 56 | 149 | 6.0 | 8.0 | 0.00 | 0.06 | 0.06 | 99 | 1027.2 |
| 20260901053313 | 56 | 149 | 6.0 | 8.0 | 0.00 | 0.06 | 0.06 | 99 | 1027.2 |
| 20260901052809 | 56 | 82 | 4.0 | 4.0 | 0.00 | 0.06 | 0.06 | 99 | 1027.5 |
| 20260901052307 | 56 | 82 | 4.0 | 4.0 | 0.00 | 0.06 | 0.06 | 99 | 1027.5 |
| 20260901051757 | 56 | 123 | 5.0 | 6.0 | 0.00 | 0.06 | 0.06 | 99 | 1027.3 |
| 20260901051252 | 56 | 123 | 5.0 | 6.0 | 0.00 | 0.06 | 0.06 | 99 | 1027.3 |
| 20260901050748 | 57 | 153 | 6.0 | 8.0 | 0.00 | 0.06 | 0.06 | 99 | 1027.5 |
| 20260901050242 | 57 | 153 | 6.0 | 8.0 | 0.00 | 0.06 | 0.06 | 99 | 1027.5 |
| 20260901045738 | 56 | 116 | 1.0 | 1.0 | 0.00 | 0.06 | 0.06 | 99 | 1026.8 |
| 20260901045233 | 56 | 116 | 1.0 | 1.0 | 0.00 | 0.06 | 0.06 | 99 | 1026.8 |
| 20260901044728 | 57 | 157 | 9.0 | 9.0 | 0.00 | 0.06 | 0.06 | 99 | 1027.6 |
| 20260901044224 | 57 | 157 | 9.0 | 9.0 | 0.00 | 0.06 | 0.06 | 99 | 1027.6 |
| 20260901043720 | 57 | 147 | 6.0 | 7.0 | 0.00 | 0.06 | 0.06 | 99 | 1028.1 |
| 20260901043215 | 57 | 147 | 6.0 | 7.0 | 0.00 | 0.06 | 0.06 | 99 | 1028.1 |
| 20260901042714 | 57 | 98 | 6.0 | 7.0 | 0.00 | 0.06 | 0.06 | 99 | 1028.6 |
| 20260901042209 | 57 | 98 | 6.0 | 7.0 | 0.00 | 0.06 | 0.06 | 99 | 1028.6 |
| 20260901041705 | 56 | 87 | 8.0 | 9.0 | 0.05 | 0.06 | 0.06 | 99 | 1028.8 |
| 20260901041204 | 56 | 87 | 8.0 | 9.0 | 0.05 | 0.06 | 0.06 | 99 | 1028.8 |
| 20260901040659 | 57 | 117 | 9.0 | 10.0 | 0.05 | 0.06 | 0.06 | 99 | 1028.7 |
| 20260901040153 | 57 | 117 | 9.0 | 10.0 | 0.05 | 0.06 | 0.06 | 99 | 1028.7 |
| 20260901035652 | 57 | 77 | 11.0 | 13.0 | 0.00 | 0.05 | 0.05 | 99 | 1029.0 |
| 20260901035150 | 57 | 77 | 11.0 | 13.0 | 0.00 | 0.05 | 0.05 | 99 | 1029.0 |
| 20260901034644 | 57 | 88 | 7.0 | 8.0 | 0.00 | 0.05 | 0.05 | 99 | 1028.6 |
| 20260901034139 | 57 | 88 | 7.0 | 8.0 | 0.00 | 0.05 | 0.05 | 99 | 1028.6 |
| 20260901033638 | 57 | 96 | 9.0 | 10.0 | 0.00 | 0.05 | 0.05 | 99 | 1028.3 |
| 20260901033137 | 57 | 96 | 9.0 | 10.0 | 0.00 | 0.05 | 0.05 | 99 | 1028.3 |
| 20260901032636 | 56 | 117 | 8.0 | 9.0 | 0.00 | 0.05 | 0.05 | 99 | 1028.5 |
| 20260901032131 | 56 | 117 | 8.0 | 9.0 | 0.00 | 0.05 | 0.05 | 99 | 1028.5 |
| 20260901031627 | 57 | 127 | 9.0 | 10.0 | 0.00 | 0.05 | 0.05 | 99 | 1028.3 |
| 20260901031123 | 57 | 127 | 9.0 | 10.0 | 0.00 | 0.05 | 0.05 | 99 | 1028.3 |
| 20260901030622 | 57 | 112 | 9.0 | 11.0 | 0.00 | 0.05 | 0.05 | 99 | 1028.5 |
| 20260901030117 | 57 | 112 | 9.0 | 11.0 | 0.00 | 0.05 | 0.05 | 99 | 1028.5 |
| 20260901025612 | 56 | 109 | 10.0 | 11.0 | 0.00 | 0.05 | 0.05 | 99 | 1028.5 |
| 20260901025106 | 56 | 109 | 10.0 | 11.0 | 0.00 | 0.05 | 0.05 | 99 | 1028.5 |
| 20260901024601 | 56 | 117 | 7.0 | 8.0 | 0.00 | 0.05 | 0.05 | 99 | 1028.3 |
| 20260901024100 | 56 | 117 | 7.0 | 8.0 | 0.00 | 0.05 | 0.05 | 99 | 1028.3 |
| 20260901023559 | 56 | 167 | 12.0 | 14.0 | 0.00 | 0.05 | 0.05 | 99 | 1028.1 |
| 20260901023054 | 56 | 167 | 12.0 | 14.0 | 0.00 | 0.05 | 0.05 | 99 | 1028.1 |
| 20260901022549 | 56 | 142 | 13.0 | 16.0 | 0.07 | 0.05 | 0.05 | 99 | 1027.8 |
| 20260901022044 | 56 | 142 | 13.0 | 16.0 | 0.07 | 0.05 | 0.05 | 99 | 1027.8 |
| 20260901021540 | 56 | 154 | 14.0 | 16.0 | 0.00 | 0.04 | 0.04 | 99 | 1028.1 |
| 20260901021035 | 56 | 154 | 14.0 | 16.0 | 0.00 | 0.04 | 0.04 | 99 | 1028.1 |
| 20260901020531 | 56 | 153 | 15.0 | 17.0 | 0.05 | 0.04 | 0.04 | 99 | 1028.5 |
| 20260901020026 | 56 | 153 | 15.0 | 17.0 | 0.05 | 0.04 | 0.04 | 99 | 1028.5 |
| 20260901015521 | 57 | 102 | 11.0 | 13.0 | 0.00 | 0.03 | 0.03 | 99 | 1028.5 |
| 20260901015021 | 57 | 102 | 11.0 | 13.0 | 0.00 | 0.03 | 0.03 | 99 | 1028.5 |
| 20260901014516 | 58 | 125 | 13.0 | 14.0 | 0.00 | 0.03 | 0.03 | 99 | 1028.3 |
| 20260901014013 | 58 | 125 | 13.0 | 14.0 | 0.00 | 0.03 | 0.03 | 99 | 1028.3 |
| 20260901013508 | 58 | 107 | 7.0 | 8.0 | 0.00 | 0.03 | 0.03 | 99 | 1028.3 |
| 20260901013004 | 58 | 107 | 7.0 | 8.0 | 0.00 | 0.03 | 0.03 | 99 | 1028.3 |
| 20260901012503 | 59 | 158 | 13.0 | 15.0 | 0.00 | 0.03 | 0.03 | 99 | 1027.8 |
| 20260901011958 | 59 | 158 | 13.0 | 15.0 | 0.00 | 0.03 | 0.03 | 99 | 1027.8 |
| 20260901011455 | 59 | 137 | 12.0 | 13.0 | 0.00 | 0.03 | 0.03 | 99 | 1027.8 |
| 20260901010952 | 59 | 137 | 12.0 | 13.0 | 0.00 | 0.03 | 0.03 | 99 | 1027.8 |
| 20260901010448 | 59 | 151 | 13.0 | 15.0 | 0.00 | 0.03 | 0.03 | 99 | 1028.0 |
| 20260901005947 | 59 | 151 | 13.0 | 15.0 | 0.00 | 0.03 | 0.03 | 99 | 1028.0 |
| 20260901005442 | 59 | 113 | 8.0 | 10.0 | 0.00 | 0.03 | 0.03 | 99 | 1028.1 |
| 20260901004937 | 59 | 139 | 7.0 | 9.0 | 0.00 | 0.03 | 0.03 | 99 | 1028.0 |
| 20260901004436 | 59 | 139 | 7.0 | 9.0 | 0.00 | 0.03 | 0.03 | 99 | 1028.0 |
| 20260901003931 | 60 | 99 | 6.0 | 8.0 | 0.00 | 0.03 | 0.03 | 99 | 1028.0 |
| 20260901003421 | 60 | 99 | 6.0 | 8.0 | 0.00 | 0.03 | 0.03 | 99 | 1028.0 |
| 20260901002919 | 63 | 89 | 3.0 | 3.0 | 0.07 | 0.03 | 0.03 | 99 | 1028.0 |
| 20260901002418 | 63 | 89 | 3.0 | 3.0 | 0.07 | 0.03 | 0.03 | 99 | 1028.0 |
| 20260901001913 | 62 | 194 | 4.0 | 6.0 | 0.12 | 0.02 | 0.02 | 99 | 1027.7 |
| 20260901001409 | 62 | 194 | 4.0 | 6.0 | 0.12 | 0.02 | 0.02 | 99 | 1027.7 |
| 20260901000904 | 61 | 134 | 15.0 | 19.0 | 0.00 | 0.00 | 0.00 | 99 | 1027.5 |
| 20260901000359 | 61 | 134 | 15.0 | 19.0 | 0.00 | 0.00 | 0.00 | 99 | 1027.5 |
| 20260831235857 | 66 | 140 | 11.0 | 14.0 | 0.00 | 0.00 | 0.00 | 99 | 1027.2 |
| 20260831235354 | 66 | 140 | 11.0 | 14.0 | 0.00 | 0.00 | 0.00 | 99 | 1027.2 |
| 20260831234853 | 70 | 68 | 3.0 | 4.0 | 0.00 | 0.00 | 0.00 | 99 | 1027.2 |
| 20260831234348 | 70 | 68 | 3.0 | 4.0 | 0.00 | 0.00 | 0.00 | 99 | 1027.2 |
| 20260831233844 | 70 | 352 | 11.0 | 11.0 | 0.00 | 0.00 | 0.00 | 99 | 1027.0 |
| 20260831233338 | 70 | 352 | 11.0 | 11.0 | 0.00 | 0.00 | 0.00 | 99 | 1027.0 |
| 20260831232834 | 71 | 354 | 10.0 | 11.0 | 0.00 | 0.00 | 0.00 | 99 | 1027.1 |
| 20260831232330 | 71 | 354 | 10.0 | 11.0 | 0.00 | 0.00 | 0.00 | 99 | 1027.1 |
| 20260831231820 | 71 | 354 | 11.0 | 13.0 | 0.00 | 0.00 | 0.00 | 99 | 1027.3 |
| 20260831231317 | 71 | 354 | 11.0 | 13.0 | 0.00 | 0.00 | 0.00 | 99 | 1027.3 |
| 20260831230812 | 71 | 355 | 11.0 | 13.0 | 0.00 | 0.00 | 0.00 | 99 | 1027.0 |
| 20260831230307 | 71 | 355 | 11.0 | 13.0 | 0.00 | 0.00 | 0.00 | 99 | 1027.0 |
| 20260831225806 | 71 | 10 | 9.0 | 10.0 | 0.00 | 0.00 | 0.00 | 99 | 1026.8 |
| 20260831225301 | 71 | 10 | 9.0 | 10.0 | 0.00 | 0.00 | 0.00 | 99 | 1026.8 |
| 20260831224756 | 71 | 359 | 11.0 | 13.0 | 0.00 | 0.00 | 0.00 | 99 | 1026.7 |
| 20260831224251 | 71 | 359 | 11.0 | 13.0 | 0.00 | 0.00 | 0.00 | 99 | 1026.7 |
| 20260831223746 | 72 | 12 | 12.0 | 14.0 | 0.00 | 0.00 | 0.00 | 99 | 1026.8 |
| 20260831223243 | 72 | 12 | 12.0 | 14.0 | 0.00 | 0.00 | 0.00 | 99 | 1026.8 |
| 20260831222739 | 73 | 5 | 9.0 | 9.0 | 0.00 | 0.00 | 0.00 | 99 | 1026.7 |
| 20260831222234 | 73 | 5 | 9.0 | 9.0 | 0.00 | 0.00 | 0.00 | 99 | 1026.7 |
| 20260831221730 | 74 | 350 | 5.0 | 6.0 | 0.00 | 0.00 | 0.00 | 99 | 1026.7 |
| 20260831221225 | 74 | 350 | 5.0 | 6.0 | 0.00 | 0.00 | 0.00 | 99 | 1026.7 |
| 20260831220720 | 74 | 11 | 5.0 | 6.0 | 0.00 | 0.00 | 0.00 | 99 | 1026.7 |
| 20260831220215 | 74 | 11 | 5.0 | 6.0 | 0.00 | 0.00 | 0.00 | 99 | 1026.7 |
| 20260831215710 | 73 | 2 | 5.0 | 7.0 | 0.00 | 0.00 | 0.00 | 99 | 1026.8 |
| 20260831215206 | 73 | 2 | 5.0 | 7.0 | 0.00 | 0.00 | 0.00 | 99 | 1026.8 |
| 20260831214703 | 73 | 338 | 8.0 | 10.0 | 0.00 | 0.00 | 0.00 | 99 | 1026.8 |
| 20260831214159 | 73 | 338 | 8.0 | 10.0 | 0.00 | 0.00 | 0.00 | 99 | 1026.8 |
| 20260831213655 | 72 | 5 | 7.0 | 8.0 | 0.00 | 0.00 | 0.00 | 99 | 1027.3 |
| 20260831213150 | 72 | 5 | 7.0 | 8.0 | 0.00 | 0.00 | 0.00 | 99 | 1027.3 |
| 20260831212640 | 73 | 17 | 5.0 | 6.0 | 0.00 | 0.00 | 0.00 | 99 | 1027.3 |
| 20260831212137 | 73 | 17 | 5.0 | 6.0 | 0.00 | 0.00 | 0.00 | 99 | 1027.3 |
| 20260831211635 | 74 | 15 | 8.0 | 9.0 | 0.00 | 0.00 | 0.00 | 99 | 1027.2 |
| 20260831211130 | 74 | 15 | 8.0 | 9.0 | 0.00 | 0.00 | 0.00 | 99 | 1027.2 |
| 20260831210625 | 72 | 359 | 5.0 | 7.0 | 0.00 | 0.00 | 0.00 | 99 | 1027.6 |
| 20260831210121 | 72 | 359 | 5.0 | 7.0 | 0.00 | 0.00 | 0.00 | 99 | 1027.6 |
| 20260831205620 | 73 | 30 | 9.0 | 11.0 | 0.00 | 0.00 | 0.00 | 99 | 1027.8 |
| 20260831205116 | 73 | 30 | 9.0 | 11.0 | 0.00 | 0.00 | 0.00 | 99 | 1027.8 |
| 20260831204616 | 72 | 355 | 7.0 | 9.0 | 0.00 | 0.00 | 0.00 | 99 | 1027.7 |
| 20260831204114 | 72 | 355 | 7.0 | 9.0 | 0.00 | 0.00 | 0.00 | 99 | 1027.7 |
| 20260831203609 | 72 | 1 | 8.0 | 10.0 | 0.00 | 0.00 | 0.00 | 99 | 1027.7 |
| 20260831203108 | 72 | 1 | 8.0 | 10.0 | 0.00 | 0.00 | 0.00 | 99 | 1027.7 |
| 20260831202607 | 73 | 1 | 8.0 | 10.0 | 0.00 | 0.00 | 0.00 | 99 | 1027.8 |
| 20260831202102 | 73 | 1 | 8.0 | 10.0 | 0.00 | 0.00 | 0.00 | 99 | 1027.8 |
| 20260831201600 | 73 | 348 | 9.0 | 10.0 | 0.00 | 0.00 | 0.00 | 99 | 1027.8 |
| 20260831201056 | 73 | 348 | 9.0 | 10.0 | 0.00 | 0.00 | 0.00 | 99 | 1027.8 |
| 20260831200552 | 75 | 319 | 5.0 | 6.0 | 0.00 | 0.00 | 0.00 | 99 | 1028.0 |
| 20260831200051 | 75 | 319 | 5.0 | 6.0 | 0.00 | 0.00 | 0.00 | 99 | 1028.0 |
| 20260831195547 | 75 | 138 | 4.0 | 6.0 | 0.00 | 0.00 | 0.00 | 99 | 1028.0 |
| 20260831195042 | 75 | 138 | 4.0 | 6.0 | 0.00 | 0.00 | 0.00 | 99 | 1028.0 |
| 20260831194537 | 75 | 131 | 0.0 | 1.0 | 0.00 | 0.00 | 0.00 | 99 | 1028.2 |
| 20260831194032 | 75 | 131 | 0.0 | 1.0 | 0.00 | 0.00 | 0.00 | 99 | 1028.2 |
| 20260831193527 | 78 | 7 | 3.0 | 3.0 | 0.00 | 0.00 | 0.00 | 99 | 1028.3 |
| 20260831193022 | 78 | 7 | 3.0 | 3.0 | 0.00 | 0.00 | 0.00 | 99 | 1028.3 |
| 20260831192517 | 75 | 126 | 3.0 | 3.0 | 0.00 | 0.00 | 0.00 | 99 | 1028.5 |
| 20260831192012 | 75 | 126 | 3.0 | 3.0 | 0.00 | 0.00 | 0.00 | 99 | 1028.5 |
| 20260831191503 | 77 | 143 | 1.0 | 3.0 | 0.00 | 0.00 | 0.00 | 99 | 1028.5 |
| 20260831190959 | 77 | 143 | 1.0 | 3.0 | 0.00 | 0.00 | 0.00 | 99 | 1028.5 |
| 20260831190454 | 76 | 141 | 3.0 | 3.0 | 0.00 | 0.00 | 0.00 | 99 | 1028.6 |
| 20260831185952 | 76 | 141 | 3.0 | 3.0 | 0.00 | 0.00 | 0.00 | 99 | 1028.6 |
| 20260831185449 | 74 | 43 | 6.0 | 7.0 | 0.00 | 0.00 | 0.00 | 99 | 1028.6 |
| 20260831184948 | 74 | 43 | 6.0 | 7.0 | 0.00 | 0.00 | 0.00 | 99 | 1028.6 |
| 20260831184443 | 74 | 109 | 0.0 | 1.0 | 0.00 | 0.00 | 0.00 | 99 | 1028.6 |
| 20260831183938 | 74 | 109 | 0.0 | 1.0 | 0.00 | 0.00 | 0.00 | 99 | 1028.6 |
| 20260831183437 | 73 | 142 | 1.0 | 2.0 | 0.00 | 0.00 | 0.00 | 99 | 1029.0 |
| 20260831182937 | 73 | 142 | 1.0 | 2.0 | 0.00 | 0.00 | 0.00 | 99 | 1029.0 |
| 20260831182433 | 72 | 146 | 0.0 | 1.0 | 0.00 | 0.00 | 0.00 | 99 | 1029.0 |
| 20260831181928 | 72 | 146 | 0.0 | 1.0 | 0.00 | 0.00 | 0.00 | 99 | 1029.0 |
| 20260831181424 | 72 | 62 | 3.0 | 4.0 | 0.00 | 0.00 | 0.00 | 99 | 1029.1 |
| 20260831180923 | 72 | 62 | 3.0 | 4.0 | 0.00 | 0.00 | 0.00 | 99 | 1029.1 |
| 20260831180418 | 71 | 47 | 9.0 | 10.0 | 0.00 | 0.00 | 0.00 | 99 | 1029.0 |
| 20260831175917 | 71 | 47 | 9.0 | 10.0 | 0.00 | 0.00 | 0.00 | 99 | 1029.0 |
| 20260831175414 | 73 | 26 | 4.0 | 6.0 | 0.00 | 0.00 | 0.00 | 99 | 1029.0 |
| 20260831174909 | 73 | 26 | 4.0 | 6.0 | 0.00 | 0.00 | 0.00 | 99 | 1029.0 |
| 20260831174404 | 71 | 43 | 5.0 | 8.0 | 0.00 | 0.00 | 0.00 | 99 | 1029.0 |
| 20260831173903 | 71 | 43 | 5.0 | 8.0 | 0.00 | 0.00 | 0.00 | 99 | 1029.0 |
| 20260831173403 | 71 | 65 | 8.0 | 10.0 | 0.00 | 0.00 | 0.00 | 99 | 1029.1 |
| 20260831172858 | 71 | 65 | 8.0 | 10.0 | 0.00 | 0.00 | 0.00 | 99 | 1029.1 |
| 20260831171604 | 72 | 23 | 4.0 | 4.0 | 0.00 | 0.00 | 0.00 | 99 | 1029.1 |
| 20260831171102 | 72 | 23 | 4.0 | 4.0 | 0.00 | 0.00 | 0.00 | 99 | 1029.1 |
| 20260831170557 | 68 | 36 | 2.0 | 2.0 | 0.00 | 0.00 | 0.00 | 99 | 1029.1 |
| 20260831170055 | 68 | 36 | 2.0 | 2.0 | 0.00 | 0.00 | 0.00 | 99 | 1029.1 |
| 20260831165554 | 68 | 75 | 3.0 | 3.0 | 0.00 | 0.00 | 0.00 | 99 | 1029.1 |
| 20260831165051 | 68 | 75 | 3.0 | 3.0 | 0.00 | 0.00 | 0.00 | 99 | 1029.1 |
| 20260831164547 | 68 | 91 | 1.0 | 2.0 | 0.00 | 0.00 | 0.00 | 99 | 1029.0 |
| 20260831164042 | 68 | 91 | 1.0 | 2.0 | 0.00 | 0.00 | 0.00 | 99 | 1029.0 |
| 20260831163537 | 68 | 94 | 1.0 | 1.0 | 0.00 | 0.00 | 0.00 | 99 | 1028.8 |
| 20260831163033 | 68 | 94 | 1.0 | 1.0 | 0.00 | 0.00 | 0.00 | 99 | 1028.8 |
| 20260831162531 | 66 | 145 | 1.0 | 2.0 | 0.00 | 0.00 | 0.00 | 99 | 1028.7 |
| 20260831162030 | 66 | 145 | 1.0 | 2.0 | 0.00 | 0.00 | 0.00 | 99 | 1028.7 |
| 20260831161526 | 65 | 26 | 2.0 | 2.0 | 0.00 | 0.00 | 0.00 | 99 | 1029.0 |
| 20260831161022 | 65 | 26 | 2.0 | 2.0 | 0.00 | 0.00 | 0.00 | 99 | 1029.0 |
| 20260831160521 | 64 | 131 | 0.0 | 0.0 | 0.00 | 0.00 | 0.00 | 99 | 1028.7 |
| 20260831160017 | 64 | 131 | 0.0 | 0.0 | 0.00 | 0.00 | 0.00 | 99 | 1028.7 |
| 20260831155511 | 63 | 160 | 2.0 | 2.0 | 0.00 | 0.00 | 0.00 | 99 | 1028.5 |
| 20260831155006 | 63 | 160 | 2.0 | 2.0 | 0.00 | 0.00 | 0.00 | 99 | 1028.5 |
| 20260831154503 | 63 | 89 | 4.0 | 4.0 | 0.00 | 0.00 | 0.00 | 99 | 1028.6 |
| 20260831154001 | 63 | 89 | 4.0 | 4.0 | 0.00 | 0.00 | 0.00 | 99 | 1028.6 |
| 20260831153457 | 63 | 107 | 4.0 | 4.0 | 0.00 | 0.00 | 0.00 | 99 | 1028.6 |
| 20260831152954 | 63 | 107 | 4.0 | 4.0 | 0.00 | 0.00 | 0.00 | 99 | 1028.6 |
| 20260831152454 | 62 | 81 | 5.0 | 6.0 | 0.00 | 0.00 | 0.00 | 99 | 1028.3 |
| 20260831151949 | 62 | 81 | 5.0 | 6.0 | 0.00 | 0.00 | 0.00 | 99 | 1028.3 |
| 20260831151449 | 60 | 107 | 4.0 | 6.0 | 0.00 | 0.00 | 0.00 | 99 | 1028.2 |
| 20260831150944 | 60 | 107 | 4.0 | 6.0 | 0.00 | 0.00 | 0.00 | 99 | 1028.2 |
| 20260831150439 | 60 | 107 | 4.0 | 4.0 | 0.00 | 0.00 | 0.00 | 99 | 1028.3 |
| 20260831145939 | 60 | 107 | 4.0 | 4.0 | 0.00 | 0.00 | 0.00 | 99 | 1028.3 |
| 20260831145435 | 60 | 82 | 6.0 | 7.0 | 0.00 | 0.00 | 0.00 | 99 | 1028.2 |
| 20260831144930 | 60 | 82 | 6.0 | 7.0 | 0.00 | 0.00 | 0.00 | 99 | 1028.2 |
| 20260831144426 | 60 | 96 | 4.0 | 4.0 | 0.00 | 0.00 | 0.00 | 99 | 1028.3 |
| 20260831143921 | 60 | 96 | 4.0 | 4.0 | 0.00 | 0.00 | 0.00 | 99 | 1028.3 |
| 20260831143411 | 59 | 96 | 7.0 | 8.0 | 0.00 | 0.00 | 0.00 | 99 | 1028.1 |
| 20260831142907 | 59 | 96 | 7.0 | 8.0 | 0.00 | 0.00 | 0.00 | 99 | 1028.1 |
| 20260831142402 | 59 | 95 | 10.0 | 13.0 | 0.00 | 0.00 | 0.00 | 99 | 1028.0 |
| 20260831141902 | 59 | 95 | 10.0 | 13.0 | 0.00 | 0.00 | 0.00 | 99 | 1028.0 |
| 20260831141355 | 59 | 116 | 6.0 | 7.0 | 0.00 | 0.00 | 0.00 | 99 | 1028.0 |
| 20260831140851 | 59 | 116 | 6.0 | 7.0 | 0.00 | 0.00 | 0.00 | 99 | 1028.0 |
| 20260831140345 | 59 | 127 | 6.0 | 7.0 | 0.00 | 0.00 | 0.00 | 99 | 1027.8 |
| 20260831135844 | 59 | 127 | 6.0 | 7.0 | 0.00 | 0.00 | 0.00 | 99 | 1027.8 |
| 20260831135339 | 59 | 117 | 7.0 | 8.0 | 0.00 | 0.00 | 0.00 | 99 | 1027.7 |
| 20260831134834 | 59 | 122 | 6.0 | 8.0 | 0.00 | 0.00 | 0.00 | 99 | 1027.5 |
| 20260831134331 | 59 | 122 | 6.0 | 8.0 | 0.00 | 0.00 | 0.00 | 99 | 1027.5 |
| 20260831133830 | 59 | 70 | 9.0 | 10.0 | 0.00 | 0.00 | 0.00 | 99 | 1027.6 |
| 20260831133329 | 59 | 70 | 9.0 | 10.0 | 0.00 | 0.00 | 0.00 | 99 | 1027.6 |
| 20260831132825 | 60 | 88 | 8.0 | 10.0 | 0.00 | 0.00 | 0.00 | 99 | 1027.5 |
| 20260831132320 | 60 | 88 | 8.0 | 10.0 | 0.00 | 0.00 | 0.00 | 99 | 1027.5 |
| 20260831131814 | 61 | 63 | 12.0 | 15.0 | 0.00 | 0.00 | 0.00 | 99 | 1027.2 |
| 20260831131311 | 61 | 63 | 12.0 | 15.0 | 0.00 | 0.00 | 0.00 | 99 | 1027.2 |
| 20260831130805 | 60 | 63 | 10.0 | 11.0 | 0.00 | 0.00 | 0.00 | 99 | 1027.2 |
| 20260831130301 | 60 | 63 | 10.0 | 11.0 | 0.00 | 0.00 | 0.00 | 99 | 1027.2 |
| 20260831125800 | 61 | 70 | 8.0 | 10.0 | 0.00 | 0.00 | 0.00 | 99 | 1027.2 |